Regional Weather Roundup
Issued by NWS

Home | Current Version | Previous Version | Text Only | Print | Product List | Glossary Off
Versions: 1 2 3 4 5 6 7 8 9 10 11 12 13 14 15 16 17 18 19 20 21 22 23 24 25 26 27

000
ASUS42 KTBW 241516
RWRFL
FLORIDA REGIONAL WEATHER ROUNDUP
NATIONAL WEATHER SERVICE TAMPA BAY RUSKIN FL
1000 AM EST TUE JAN 24 2017

NOTE: "FAIR" INDICATES FEW OR NO CLOUDS BELOW 12,000 FEET WITH NO
SIGNIFICANT WEATHER AND/OR OBSTRUCTIONS TO VISIBILITY.

FLZ001>010-012>015-112-114-115-241600-
PANHANDLE FLORIDA

CITY           SKY/WX    TMP DP  RH WIND       PRES   REMARKS
PENSACOLA      SUNNY     53  42  66 N10       29.96R
PENSACOLA NAS  MOSUNNY   51  42  71 N7        29.97R
MILTON NAS     SUNNY     49  41  74 N6        29.96
CRESTVIEW      SUNNY     49  42  77 VRB6      29.96R
DUKE FIELD     MOSUNNY   49  41  74 NW8       29.94R
VALPARAISO     MOSUNNY   51  42  71 N9        29.95R
MARY ESTHER    SUNNY     51  37  59 N13       29.94R
TRI COUNTY     CLOUDY    48  46  93 VRB5      29.95R
PANAMA CITY    FAIR      52  45  77 NW5       29.94R
TYNDALL AFB    SUNNY     54  46  75 NW6       29.95R
APALACHICOLA   SUNNY     57  48  72 NW6       29.94R

STATION/POSITION SKY/WX   TEMP    WIND        PRES    WAVE   SWELL
                          AIR SEA DIR/SP/G            HT/PER HT/PER
                          (F)     (DEG/KT/KT) (MB)    (FT/S) (FT/S)
30.1N   87.6W              51 64   10/ 10/ 12 1014.7R   2/ 7   2/ 7
28.8N   86.0W              66 74              1014.3R   5/ 7   3/ 7
PANAMA CITY BEAC              64  310/  5/  6 1014.4R
TOWER C                    57     330/ 10/ 11 1014.3R
28.5N   84.5W              66 71  330/ 12/ 16 1013.4R   7/ 9   7/ 9

$$
FLZ011-016>038-118-127-128-134-139-239-241600-
NORTH FLORIDA

CITY           SKY/WX    TMP DP  RH WIND       PRES   REMARKS
MARIANNA       SUNNY     53  45  74 NW6       29.92R
TALLAHASSEE    SUNNY     55  46  71 NW9       29.92R
PERRY          SUNNY     56  47  71 W9        29.92R
CROSS CITY     SUNNY     59  46  63 NW7       29.92R
LAKE CITY      FAIR      55  46  71 NW7       29.89R
GAINESVILLE    SUNNY     59  46  62 NW7       29.89R
WILLISTON      SUNNY     61  48  63 W9        29.92R
PALATKA        FAIR      59  48  67 NW8G16    29.88R
MAYPORT NAS    SUNNY     59  47  64 W12       29.84R
JACKSONVILLE   SUNNY     59  47  64 W14G22    29.84R
JAX NAS        SUNNY     59  46  62 W12       29.86R
FERNANDINA BEA FAIR      61  48  63 W15       29.82R
ST AUGUSTINE   SUNNY     60  47  61 W12G18    29.86R

STATION/POSITION SKY/WX   TEMP    WIND        PRES    WAVE   SWELL
                          AIR SEA DIR/SP/G            HT/PER HT/PER
                          (F)     (DEG/KT/KT) (MB)    (FT/S) (FT/S)
SHELL POINT      NOT AVBL
KEATON BEACH               56     310/  8/ 11 1013.0R
CEDAR KEY                  60     310/  8/ 10 1012.8R
FERNANDINA                 57 64              1010.8R
30.7N   81.3W                 62                N/A     2/ 3   2/13
MAYPORT                    57 63  280/ 12/ 18 1010.4R
31.4N   80.9W              55 59  280/ 21/ 25 1007.2    4/ 4
ST AUGUSTINE               59 62  280/  9/ 13 1011.6R

$$
FLZ040-043>046-052-053-057-058-063-144-241600-
INTERIOR CENTRAL FLORIDA

CITY           SKY/WX    TMP DP  RH WIND       PRES   REMARKS
OCALA          SUNNY     59  46  63 NW9       29.91R
THE VILLAGES     N/A     61  55  82 N8        29.82R
SANFORD        SUNNY     62  48  60 NW12      29.89R
ORLANDO EXEC   SUNNY     62  49  62 W13       29.90R
ORLANDO INTL   SUNNY     63  48  58 W12       29.91R
KISSIMMEE      SUNNY     64  50  60 W14       29.92R
WINTER HAVEN   SUNNY     64  53  67 W13       29.93R
LAKELAND       SUNNY     64  55  72 W12G18    29.93R
BARTOW         SUNNY     63  52  67 NW14      29.93R
OKEECHOBEE     SUNNY     64  54  68 NW10      29.92R

$$
FLZ041-047-054-059-064-141-147-241600-
EAST CENTRAL FLORIDA

CITY           SKY/WX    TMP DP  RH WIND       PRES   REMARKS
ORMOND BEACH   SUNNY     59  50  72 W12       29.87R
DAYTONA BEACH  SUNNY     61  49  64 W13       29.87R
DELAND         SUNNY     59  48  67 W8        29.88R
JFK SPACE CTR  SUNNY     63  49  61 NW14      29.87R
TITUSVILLE     SUNNY     63  46  55 NW17      29.89R
CAPE CANAVERAL SUNNY     64  49  59 W15       29.86R
PATRICK AFB    SUNNY     64  52  64 W17       29.88R
MELBOURNE      SUNNY     63  52  67 W13       29.89R
VERO BEACH     SUNNY     65  52  62 W13       29.90R
FT PIERCE      SUNNY     64  55  72 W14       29.90R
STUART         SUNNY     68  55  64 W13       29.91R

STATION/POSITION SKY/WX   TEMP    WIND        PRES    WAVE   SWELL
                          AIR SEA DIR/SP/G            HT/PER HT/PER
                          (F)     (DEG/KT/KT) (MB)    (FT/S) (FT/S)
TRIDENT PIER               61 69  270/ 10/ 14 1012.5R
28.4N   80.5W                 72                N/A     2/13
27.5N   80.2W                 73                N/A     5/11   2/11

$$
FLZ050-056-061-142-242-148-248-149-249-151-251-155-255-
160-260-241600-
WEST CENTRAL FLORIDA

CITY           SKY/WX    TMP DP  RH WIND       PRES   REMARKS
CRYSTAL RIVER  FAIR      63  54  72 W10       29.93R
INVERNESS      FAIR      61  50  67 NW6       29.93R
BROOKSVILLE    SUNNY     66  53  63 W13       29.94R
CLEARWATER AIR FAIR      64  54  68 NW10G16   29.93R
ST PETE CLEARW SUNNY     68  55  63 NW15      29.93
TAMPA INTL     MOSUNNY   69  55  60 NW12G20   29.93R
TAMPA EXEC     SUNNY     70  54  56 NW7       29.93R
PLANT CITY     SUNNY     66  57  72 NW10G16   29.95R
MACDILL AFB    SUNNY     69  58  68 NW10      29.93R
PETER O KNIGHT MOSUNNY   68  59  73 NW8       29.93R
ST PETERSBURG  SUNNY     66  56  70 NW10      29.91R
SARASOTA       MOSUNNY   69  57  65 NW10      29.92R
VENICE         FAIR      70  59  68 NW9       29.94R

STATION/POSITION SKY/WX   TEMP    WIND        PRES    WAVE   SWELL
                          AIR SEA DIR/SP/G            HT/PER HT/PER
                          (F)     (DEG/KT/KT) (MB)    (FT/S) (FT/S)
27.3N   84.2W                 76                N/A    10/11   5/11
CLEARWATER BEACH           65 67  330/ 13/ 16 1013.6R
MIDDLE TAMPA BAY           65     350/  8/ 10 1013.7R
VENICE                     67 69  330/  6/  7 1012.7R

$$
FLZ066-069-070-075>078-162-262-165-265-241600-
SOUTHWEST FLORIDA AND KEYS

CITY           SKY/WX    TMP DP  RH WIND       PRES   REMARKS
PUNTA GORDA    SUNNY     69  56  62 NW8       29.95R
FT MYERS       SUNNY     70  59  68 NW8       29.93R
SOUTHWEST INTL SUNNY     69  57  65 VRB6      29.94R
NAPLES         SUNNY     71  60  68 NW10      29.94R
MARCO ISLAND   MOSUNNY   61  57  88 NW9       29.95R
MARATHON         N/A     76  61  59 MISG      29.96R
KEY WEST NAS   MOSUNNY   74  60  61 NW9       29.97R
KEY WEST INTL  SUNNY     74  61  63 NW12      29.97R

STATION/POSITION SKY/WX   TEMP    WIND        PRES    WAVE   SWELL
                          AIR SEA DIR/SP/G            HT/PER HT/PER
                          (F)     (DEG/KT/KT) (MB)    (FT/S) (FT/S)
NAPLES                        70              1013.8R
26.0N   85.6W              71 74  290/ 10/ 12 1015.3R   7/10   7/10
DRY TORTUGAS               73     340/ 10/ 10 1015.2R
SAND KEY                   71     330/ 12/ 13 1015.4R
LONG KEY                   68 71  350/  3/  4 1014.0R
MOLASSES REEF              68 73  340/ 11/ 12 1013.8R

$$
FLZ067-068-071>074-168-172>174-241600-
SOUTHEAST FLORIDA

CITY           SKY/WX    TMP DP  RH WIND       PRES   REMARKS
W PALM BEACH   SUNNY     67  54  63 NW12      29.91R
BOCA RATON     SUNNY     66  55  68 NW14G21   29.92R
FT LAUDER-EXEC SUNNY     68  54  60 NW13      29.93R
FT LAUDERDALE  SUNNY     68  54  60 NW13G23   29.92R
POMPANO BEACH  SUNNY     68  55  63 NW12      29.92R
PEMBROKE PINES SUNNY     69  56  62 NW14G23   29.94R
OPA LOCKA        N/A    N/A N/A N/A MISG      29.94R
MIAMI          SUNNY     70  57  63 NW13G20   29.94R
WEST KENDALL   SUNNY     70  59  68 NW15      29.94R
HOMESTEAD      SUNNY     69  60  74 NW14      29.94R

STATION/POSITION SKY/WX   TEMP    WIND        PRES    WAVE   SWELL
                          AIR SEA DIR/SP/G            HT/PER HT/PER
                          (F)     (DEG/KT/KT) (MB)    (FT/S) (FT/S)
PORT EVERGLADES            67     290/ 12/ 20 1013.0R
VIRGINIA KEY                  78  300/  7/ 11 1013.9R
LAKE WORTH                 65 73  300/ 11/ 13 1012.2R
FOWEY ROCKS                65 73  300/ 15/ 17 1013.7R

$$





USA.gov is the U.S. government's official web portal to all federal, state and local government web resources and services.